Location: Piotrkow Trybunalski
(51.4000°N, 19.6830°E)
Time: 01:04:46
(UTC+01:00)

A-11 Canister half - Pass Details

Date: 11 December 2023
Orbit: 1512 x 1687 km, 47.2° (Epoch: 23 February)

Event Time Altitude Azimuth Distance (km) Brightness Sun altitude
Exits shadow 04:58:05 28° 245° (WSW) 2,731 9.8 -23.3°
Maximum altitude 05:00:33 31° 221° (SW) 2,599 9.9 -22.9°
Drops below altitude 10° 05:08:58 10° 164° (SSE) 3,939 11.4 -21.6°
Sets 05:12:37 0° 155° (SSE) 4,930 12.2 -21.0°
